Time,TemperatureF,DewpointF,PressureIn,WindDirection,WindDirectionDegrees,WindSpeedMPH,WindSpeedGustMPH,Humidity,HourlyPrecipIn,Conditions,Clouds,dailyrainin,SoftwareType,DateUTC
2013-02-25 00:05:00,28.5,27.0,30.05,WNW,297,2.0,6.0,94,0.00,,,0.06,weatherlink.com 1.10,2013-02-25 05:05:00,
2013-02-25 00:20:00,28.5,27.0,30.05,NW,315,0.0,3.0,95,0.00,,,0.00,weatherlink.com 1.10,2013-02-25 05:20:00,
2013-02-25 00:35:00,28.5,27.0,30.06,West,277,0.0,6.0,95,0.00,,,0.00,weatherlink.com 1.10,2013-02-25 05:35:00,
2013-02-25 00:50:00,28.4,27.0,30.06,WNW,297,1.0,4.0,95,0.00,,,0.00,weatherlink.com 1.10,2013-02-25 05:50:00,
2013-02-25 01:05:00,28.4,27.0,30.07,West,279,0.0,4.0,95,0.00,,,0.00,weatherlink.com 1.10,2013-02-25 06:05:00,
2013-02-25 01:20:00,28.5,27.0,30.07,NNW,327,0.0,3.0,95,0.00,,,0.00,weatherlink.com 1.10,2013-02-25 06:20:00,
2013-02-25 01:35:00,28.5,27.0,30.07,West,275,0.0,5.0,95,0.00,,,0.00,weatherlink.com 1.10,2013-02-25 06:35:00,
2013-02-25 01:50:00,28.5,27.0,30.07,West,259,1.0,3.0,95,0.00,,,0.00,weatherlink.com 1.10,2013-02-25 06:50:00,
2013-02-25 02:05:00,28.5,27.0,30.07,West,280,0.0,2.0,95,0.00,,,0.00,weatherlink.com 1.10,2013-02-25 07:05:00,
2013-02-25 02:20:00,28.5,28.0,30.08,West,269,0.0,4.0,96,0.00,,,0.00,weatherlink.com 1.10,2013-02-25 07:20:00,
2013-02-25 02:35:00,28.5,28.0,30.08,WNW,293,2.0,6.0,96,0.00,,,0.00,weatherlink.com 1.10,2013-02-25 07:35:00,
2013-02-25 02:50:00,28.5,28.0,30.09,NW,317,0.0,2.0,96,0.00,,,0.00,weatherlink.com 1.10,2013-02-25 07:50:00,
2013-02-25 03:05:00,28.5,28.0,30.09,West,281,1.0,3.0,96,0.00,,,0.00,weatherlink.com 1.10,2013-02-25 08:05:00,
2013-02-25 03:20:00,28.5,28.0,30.09,ENE,61,0.0,1.0,96,0.00,,,0.00,weatherlink.com 1.10,2013-02-25 08:20:00,
2013-02-25 03:36:00,28.6,28.0,30.09,NNW,348,0.0,3.0,96,0.00,,,0.00,weatherlink.com 1.10,2013-02-25 08:36:00,
2013-02-25 03:51:00,28.6,28.0,30.09,North,355,0.0,1.0,96,0.00,,,0.00,weatherlink.com 1.10,2013-02-25 08:51:00,
2013-02-25 04:06:00,28.7,28.0,30.10,North,355,0.0,0.0,96,0.00,,,0.00,weatherlink.com 1.10,2013-02-25 09:06:00,
2013-02-25 04:21:00,28.7,28.0,30.10,North,355,0.0,0.0,97,0.00,,,0.00,weatherlink.com 1.10,2013-02-25 09:21:00,
2013-02-25 04:36:00,28.7,28.0,30.11,North,355,0.0,1.0,97,0.00,,,0.00,weatherlink.com 1.10,2013-02-25 09:36:00,
2013-02-25 04:51:00,28.7,28.0,30.12,North,355,0.0,2.0,97,0.00,,,0.00,weatherlink.com 1.10,2013-02-25 09:51:00,
2013-02-25 05:06:00,28.7,28.0,30.12,North,355,0.0,1.0,97,0.00,,,0.00,weatherlink.com 1.10,2013-02-25 10:06:00,
2013-02-25 05:21:00,28.8,28.0,30.12,North,355,0.0,0.0,97,0.00,,,0.00,weatherlink.com 1.10,2013-02-25 10:21:00,
2013-02-25 05:36:00,28.8,28.0,30.13,North,355,0.0,1.0,97,0.00,,,0.00,weatherlink.com 1.10,2013-02-25 10:36:00,
2013-02-25 05:51:00,28.8,28.0,30.13,North,355,0.0,1.0,97,0.00,,,0.00,weatherlink.com 1.10,2013-02-25 10:51:00,
2013-02-25 06:06:00,28.8,28.0,30.13,North,355,0.0,0.0,97,0.00,,,0.00,weatherlink.com 1.10,2013-02-25 11:06:00,
2013-02-25 06:21:00,28.9,28.0,30.14,North,355,0.0,1.0,97,0.00,,,0.00,weatherlink.com 1.10,2013-02-25 11:21:00,
2013-02-25 06:36:00,28.9,28.0,30.14,North,355,0.0,0.0,97,0.00,,,0.00,weatherlink.com 1.10,2013-02-25 11:36:00,
2013-02-25 06:51:00,28.9,28.0,30.15,North,355,0.0,1.0,97,0.00,,,0.00,weatherlink.com 1.10,2013-02-25 11:51:00,
2013-02-25 07:06:00,28.9,28.0,30.15,WNW,293,1.0,4.0,97,0.00,,,0.00,weatherlink.com 1.10,2013-02-25 12:06:00,
2013-02-25 07:21:00,29.0,28.0,30.16,West,279,0.0,3.0,97,0.00,,,0.00,weatherlink.com 1.10,2013-02-25 12:21:00,
2013-02-25 07:36:00,29.3,29.0,30.16,West,279,0.0,1.0,97,0.00,,,0.00,weatherlink.com 1.10,2013-02-25 12:36:00,
2013-02-25 07:51:00,29.5,29.0,30.17,West,279,0.0,0.0,97,0.00,,,0.00,weatherlink.com 1.10,2013-02-25 12:51:00,
2013-02-25 08:06:00,29.7,29.0,30.18,West,279,0.0,0.0,97,0.00,,,0.00,weatherlink.com 1.10,2013-02-25 13:06:00,
2013-02-25 08:21:00,30.2,30.0,30.18,West,279,0.0,1.0,97,0.00,,,0.00,weatherlink.com 1.10,2013-02-25 13:21:00,
2013-02-25 08:36:00,30.5,30.0,30.18,West,279,0.0,1.0,96,0.00,,,0.00,weatherlink.com 1.10,2013-02-25 13:36:00,
2013-02-25 08:51:00,30.7,30.0,30.18,West,279,0.0,1.0,96,0.00,,,0.00,weatherlink.com 1.10,2013-02-25 13:51:00,
2013-02-25 09:21:00,31.9,31.0,30.19,West,279,0.0,1.0,95,0.00,,,0.00,weatherlink.com 1.10,2013-02-25 14:21:00,
2013-02-25 09:36:00,32.3,31.0,30.19,WNW,290,0.0,2.0,93,0.00,,,0.00,weatherlink.com 1.10,2013-02-25 14:36:00,
2013-02-25 09:51:00,33.3,31.0,30.19,WNW,290,0.0,2.0,92,0.00,,,0.00,weatherlink.com 1.10,2013-02-25 14:51:00,
2013-02-25 10:06:00,33.5,31.0,30.19,West,278,1.0,4.0,90,0.00,,,0.00,weatherlink.com 1.10,2013-02-25 15:06:00,
2013-02-25 10:21:00,32.9,31.0,30.20,West,272,2.0,7.0,91,0.01,,,0.01,weatherlink.com 1.10,2013-02-25 15:21:00,
2013-02-25 10:36:00,32.8,31.0,30.20,WNW,301,2.0,5.0,91,0.02,,,0.02,weatherlink.com 1.10,2013-02-25 15:36:00,
2013-02-25 10:51:00,33.1,31.0,30.20,West,263,0.0,4.0,92,0.02,,,0.02,weatherlink.com 1.10,2013-02-25 15:51:00,
2013-02-25 11:06:00,33.6,31.0,30.20,West,271,0.0,2.0,91,0.03,,,0.03,weatherlink.com 1.10,2013-02-25 16:06:00,
2013-02-25 11:21:00,34.2,31.0,30.20,NNW,331,1.0,3.0,89,0.02,,,0.03,weatherlink.com 1.10,2013-02-25 16:21:00,
2013-02-25 11:36:00,35.4,32.0,30.20,West,274,4.0,4.0,87,0.02,,,0.04,weatherlink.com 1.10,2013-02-25 16:36:00,
2013-02-25 11:52:00,35.6,32.0,30.20,West,269,2.0,6.0,85,0.03,,,0.05,weatherlink.com 1.10,2013-02-25 16:52:00,
2013-02-25 12:07:00,35.9,32.0,30.21,WNW,297,4.0,7.0,85,0.03,,,0.06,weatherlink.com 1.10,2013-02-25 17:07:00,
2013-02-25 12:22:00,36.6,32.0,30.20,WSW,247,7.0,7.0,83,0.04,,,0.07,weatherlink.com 1.10,2013-02-25 17:22:00,
2013-02-25 12:37:00,36.6,32.0,30.21,WSW,250,5.0,10.0,82,0.04,,,0.08,weatherlink.com 1.10,2013-02-25 17:37:00,
2013-02-25 12:52:00,36.5,32.0,30.21,WSW,240,3.0,9.0,82,0.04,,,0.09,weatherlink.com 1.10,2013-02-25 17:52:00,
2013-02-25 13:07:00,35.9,31.0,30.22,WNW,294,2.0,10.0,83,0.03,,,0.09,weatherlink.com 1.10,2013-02-25 18:07:00,
2013-02-25 13:22:00,35.8,31.0,30.23,West,269,2.0,7.0,84,0.03,,,0.10,weatherlink.com 1.10,2013-02-25 18:22:00,
2013-02-25 13:37:00,35.8,31.0,30.23,WNW,296,2.0,7.0,83,0.02,,,0.10,weatherlink.com 1.10,2013-02-25 18:37:00,
2013-02-25 13:52:00,34.9,31.0,30.23,WNW,287,2.0,10.0,84,0.01,,,0.10,weatherlink.com 1.10,2013-02-25 18:52:00,
2013-02-25 14:07:00,34.1,31.0,30.23,WNW,300,0.0,4.0,89,0.01,,,0.10,weatherlink.com 1.10,2013-02-25 19:07:00,
2013-02-25 14:22:00,33.9,31.0,30.23,North,5,0.0,2.0,89,0.00,,,0.10,weatherlink.com 1.10,2013-02-25 19:22:00,
2013-02-25 14:37:00,34.1,31.0,30.23,North,5,0.0,1.0,89,0.01,,,0.11,weatherlink.com 1.10,2013-02-25 19:37:00,
2013-02-25 14:52:00,34.4,32.0,30.24,NNW,333,2.0,3.0,89,0.01,,,0.11,weatherlink.com 1.10,2013-02-25 19:52:00,
2013-02-25 15:07:00,35.0,32.0,30.24,West,267,0.0,5.0,88,0.01,,,0.11,weatherlink.com 1.10,2013-02-25 20:07:00,
2013-02-25 15:22:00,35.2,31.0,30.23,WNW,292,1.0,6.0,86,0.01,,,0.11,weatherlink.com 1.10,2013-02-25 20:22:00,
2013-02-25 15:37:00,35.1,31.0,30.23,NW,317,2.0,7.0,85,0.00,,,0.11,weatherlink.com 1.10,2013-02-25 20:37:00,
2013-02-25 15:52:00,35.2,31.0,30.23,WNW,290,1.0,6.0,84,0.01,,,0.12,weatherlink.com 1.10,2013-02-25 20:52:00,
2013-02-25 16:07:00,35.2,31.0,30.22,WNW,297,1.0,6.0,84,0.01,,,0.12,weatherlink.com 1.10,2013-02-25 21:07:00,
2013-02-25 16:22:00,35.2,31.0,30.23,NW,307,1.0,2.0,84,0.01,,,0.12,weatherlink.com 1.10,2013-02-25 21:22:00,
2013-02-25 16:37:00,35.0,31.0,30.23,WNW,294,0.0,8.0,84,0.01,,,0.12,weatherlink.com 1.10,2013-02-25 21:37:00,
2013-02-25 16:52:00,34.8,30.0,30.23,NW,317,5.0,8.0,84,0.00,,,0.12,weatherlink.com 1.10,2013-02-25 21:52:00,
2013-02-25 17:07:00,34.6,30.0,30.24,WNW,288,3.0,7.0,83,0.00,,,0.12,weatherlink.com 1.10,2013-02-25 22:07:00,
2013-02-25 17:22:00,34.8,30.0,30.24,WNW,286,1.0,5.0,82,0.00,,,0.12,weatherlink.com 1.10,2013-02-25 22:22:00,
2013-02-25 17:37:00,34.6,30.0,30.25,WNW,286,0.0,2.0,83,0.00,,,0.12,weatherlink.com 1.10,2013-02-25 22:37:00,
2013-02-25 17:52:00,34.1,30.0,30.25,West,269,0.0,3.0,83,0.00,,,0.12,weatherlink.com 1.10,2013-02-25 22:52:00,
2013-02-25 18:07:00,33.7,29.0,30.26,West,271,2.0,5.0,84,0.00,,,0.12,weatherlink.com 1.10,2013-02-25 23:07:00,
2013-02-25 18:22:00,33.5,29.0,30.26,West,277,0.0,3.0,84,0.00,,,0.12,weatherlink.com 1.10,2013-02-25 23:22:00,
2013-02-25 18:37:00,33.1,28.0,30.27,WNW,290,3.0,6.0,82,0.00,,,0.12,weatherlink.com 1.10,2013-02-25 23:37:00,
2013-02-25 18:52:00,32.8,28.0,30.27,WNW,296,2.0,3.0,82,0.00,,,0.12,weatherlink.com 1.10,2013-02-25 23:52:00,
2013-02-25 19:07:00,32.5,28.0,30.27,West,273,1.0,2.0,82,0.00,,,0.12,weatherlink.com 1.10,2013-02-26 00:07:00,
2013-02-25 19:22:00,32.4,28.0,30.27,West,273,0.0,2.0,83,0.00,,,0.12,weatherlink.com 1.10,2013-02-26 00:22:00,
2013-02-25 19:37:00,32.1,28.0,30.28,West,273,0.0,0.0,84,0.00,,,0.12,weatherlink.com 1.10,2013-02-26 00:37:00,
2013-02-25 19:52:00,31.8,28.0,30.27,West,273,0.0,0.0,84,0.00,,,0.12,weatherlink.com 1.10,2013-02-26 00:52:00,
2013-02-25 20:07:00,31.5,28.0,30.27,West,273,0.0,0.0,86,0.00,,,0.12,weatherlink.com 1.10,2013-02-26 01:07:00,
2013-02-25 20:22:00,31.1,27.0,30.27,West,273,0.0,0.0,86,0.00,,,0.12,weatherlink.com 1.10,2013-02-26 01:22:00,
2013-02-25 20:37:00,30.5,27.0,30.28,West,273,0.0,1.0,87,0.00,,,0.12,weatherlink.com 1.10,2013-02-26 01:37:00,
2013-02-25 20:52:00,30.5,27.0,30.28,West,273,0.0,1.0,86,0.00,,,0.12,weatherlink.com 1.10,2013-02-26 01:52:00,
2013-02-25 21:07:00,30.4,26.0,30.27,West,273,0.0,1.0,85,0.00,,,0.12,weatherlink.com 1.10,2013-02-26 02:07:00,
2013-02-25 21:22:00,29.7,26.0,30.27,West,273,0.0,1.0,86,0.00,,,0.12,weatherlink.com 1.10,2013-02-26 02:22:00,
2013-02-25 21:37:00,29.2,26.0,30.27,West,273,0.0,1.0,87,0.00,,,0.12,weatherlink.com 1.10,2013-02-26 02:37:00,
2013-02-25 21:52:00,28.4,25.0,30.27,West,273,0.0,1.0,87,0.00,,,0.12,weatherlink.com 1.10,2013-02-26 02:52:00,
2013-02-25 22:07:00,27.5,24.0,30.28,West,273,0.0,0.0,88,0.00,,,0.12,weatherlink.com 1.10,2013-02-26 03:07:00,
2013-02-25 22:22:00,26.9,24.0,30.28,West,273,0.0,0.0,89,0.00,,,0.12,weatherlink.com 1.10,2013-02-26 03:22:00,
2013-02-25 22:37:00,26.3,24.0,30.29,West,273,0.0,0.0,89,0.00,,,0.12,weatherlink.com 1.10,2013-02-26 03:37:00,
2013-02-25 22:52:00,25.9,24.0,30.30,West,273,0.0,0.0,92,0.00,,,0.12,weatherlink.com 1.10,2013-02-26 03:52:00,
2013-02-25 23:07:00,25.8,24.0,30.30,West,273,0.0,0.0,91,0.00,,,0.12,weatherlink.com 1.10,2013-02-26 04:07:00,
2013-02-25 23:22:00,25.8,24.0,30.30,West,273,0.0,0.0,93,0.00,,,0.12,weatherlink.com 1.10,2013-02-26 04:22:00,
2013-02-25 23:37:00,25.5,24.0,30.30,West,273,0.0,1.0,93,0.00,,,0.12,weatherlink.com 1.10,2013-02-26 04:37:00,
2013-02-25 23:52:00,25.0,23.0,30.31,West,273,0.0,0.0,93,0.00,,,0.12,weatherlink.com 1.10,2013-02-26 04:52:00,